User: anonymous   Login
Location: Friaudour
(46.0460°N, 1.2873°E)
Time: 07:31:09
(UTC+00:00)
Language:

Landsat 5 - Orbit

View from above orbital plane
View from above orbital plane
View from above satellite
View from above satellite

Ground track
Ground track

The orbit data is extracted from the following two-line orbital elements,

1 14780U 84021A   20272.91020246 +.00000241 +00000-0 +28286-4 0  9999
2 14780 098.1846 073.8975 0089901 183.5605 176.4984 14.92110322479208
Epoch (UTC): 28 September 2020 21:50:41
Eccentricity: 0.0089901
inclination: 98.1846°
perigee height: 529 km
apogee height: 654 km
right ascension of ascending node: 73.8975°
argument of perigee: 183.5605°
revolutions per day: 14.92110322
mean anomaly at epoch: 176.4984°
orbit number at epoch: 47920

The dashed part of the orbit path shows where the satellite is in the earth's shadow,  

DLR